GW0059 Weather Reports


time (UTC)temp
C
wind
direction
speed
KPH
gust
KPH
rain 1hr
cm
rain 24hr
cm
rain mn
cm
humidity
%
barometer
mb
20260503200330 18 217 6.4 14.5 0.00 0.00 0.00 44 1007.1
20260503195855 18 217 8.0 16.1 0.00 0.00 0.00 45 1007.1
20260503195329 18 210 11.3 16.1 0.00 0.00 0.00 43 1007.1
20260503194833 18 211 8.0 17.7 0.00 0.00 0.00 42 1007.3
20260503194338 18 205 11.3 24.1 0.00 0.00 0.00 43 1007.1
20260503193902 18 191 12.9 24.1 0.00 0.00 0.00 44 1007.1
20260503193346 18 209 9.7 17.7 0.00 0.00 0.00 43 1007.0
20260503192850 18 238 9.7 22.5 0.00 0.00 0.00 44 1007.2
20260503192347 18 166 6.4 12.9 0.00 0.00 0.00 45 1007.3
20260503191830 18 249 8.0 19.3 0.00 0.00 0.00 44 1007.5
20260503191334 18 230 12.9 19.3 0.00 0.00 0.00 41 1007.5
20260503190838 18 221 8.0 14.5 0.00 0.00 0.00 40 1007.5
20260503190343 18 221 8.0 17.7 0.00 0.00 0.00 44 1007.8
20260503185831 17 227 8.0 22.5 0.00 0.00 0.00 42 1007.9
20260503185405 17 213 8.0 19.3 0.00 0.00 0.00 41 1008.0
20260503184908 17 192 8.0 22.5 0.00 0.00 0.00 41 1008.4
20260503184331 17 220 14.5 22.5 0.00 0.00 0.00 40 1008.3
20260503183835 17 223 9.7 22.5 0.00 0.00 0.00 40 1008.4
20260503183401 17 225 12.9 22.5 0.00 0.00 0.00 42 1008.5
20260503182904 17 237 8.0 19.3 0.00 0.00 0.00 38 1008.6
20260503182340 17 238 12.9 19.3 0.00 0.00 0.00 41 1008.9
20260503181843 17 229 8.0 16.1 0.00 0.00 0.00 42 1008.8
20260503181407 17 212 9.7 16.1 0.00 0.00 0.00 39 1008.9
20260503180830 17 217 4.8 19.3 0.00 0.00 0.00 42 1008.9
20260503180334 17 222 8.0 19.3 0.00 0.00 0.00 42 1009.1
20260503175858 17 184 11.3 24.1 0.00 0.00 0.00 40 1009.1
20260503175354 17 227 11.3 24.1 0.00 0.00 0.00 43 1009.2
20260503174857 17 187 11.3 20.9 0.00 0.00 0.00 39 1009.2
20260503174400 17 180 6.4 14.5 0.00 0.00 0.00 40 1009.2
20260503173844 17 233 6.4 14.5 0.00 0.00 0.00 38 1009.3
20260503173408 17 234 9.7 16.1 0.00 0.00 0.00 39 1009.4
20260503172831 17 214 8.0 22.5 0.00 0.00 0.00 40 1009.4
20260503172328 17 173 9.7 19.3 0.00 0.00 0.00 37 1009.5
20260503171836 17 202 9.7 19.3 0.00 0.00 0.00 41 1009.5
20260503171341 17 139 9.7 19.3 0.00 0.00 0.00 43 1009.5
20260503170904 16 220 6.4 16.1 0.00 0.00 0.00 38 1009.7
20260503170328 16 236 8.0 16.1 0.00 0.00 0.00 38 1009.7
20260503150857 15 202 4.8 11.3 0.00 0.00 0.00 50 1011.5
20260503150341 15 227 6.4 11.3 0.00 0.00 0.00 46 1011.6
20260503131331 8 218 4.8 9.7 0.00 0.00 0.00 70 1011.9
20260503130840 8 199 6.4 9.7 0.00 0.00 0.00 71 1012.0
20260503130403 8 213 4.8 9.7 0.00 0.00 0.00 71 1012.0
20260503110354 2 217 1.6 3.2 0.00 0.00 0.00 86 1011.1
20260503090354 2 271 1.6 3.2 0.00 0.00 0.00 87 1010.8
20260503081357 2 340 0.0 0.0 0.00 0.00 0.00 86 1010.7
20260503080859 2 340 0.0 0.0 0.00 0.00 0.00 86 1010.7
20260503080402 2 340 0.0 0.0 0.00 0.00 0.00 86 1010.7
20260503072857 2 340 0.0 0.0 0.00 0.00 0.00 86 1010.7
20260503072354 2 340 0.0 0.0 0.00 0.00 0.00 86 1010.6
20260503071837 2 340 0.0 0.0 0.00 0.00 0.00 85 1010.7
20260503071400 2 340 0.0 0.0 0.00 0.00 0.00 86 1010.7
20260503070843 2 340 0.0 0.0 0.00 0.00 0.00 85 1010.7
20260503070331 3 340 0.0 0.0 0.00 0.00 0.00 85 1010.6
20260503054838 3 340 0.0 0.0 0.00 0.00 0.00 82 1011.2
20260503054342 3 340 0.0 0.0 0.00 0.00 0.00 82 1011.2
20260503053907 3 340 0.0 0.0 0.00 0.00 0.00 81 1011.1
20260503053351 3 340 0.0 0.0 0.00 0.00 0.00 81 1011.2
20260503052853 3 340 0.0 0.0 0.00 0.00 0.00 80 1011.3
20260503052349 3 340 0.0 0.0 0.00 0.00 0.00 80 1011.3
20260503051832 3 340 0.0 0.0 0.00 0.00 0.00 80 1011.3
20260503051357 3 340 0.0 0.0 0.00 0.00 0.00 79 1011.3
20260503050839 3 340 0.0 0.0 0.00 0.00 0.00 79 1011.3
20260503050327 3 340 0.0 0.0 0.00 0.00 0.00 78 1011.4
20260503045831 3 340 0.0 0.0 0.00 0.00 0.00 78 1011.4
20260503045407 3 340 0.0 0.0 0.00 0.00 0.00 78 1011.3
20260503044830 3 340 0.0 0.0 0.00 0.00 0.00 77 1011.2
20260503044334 3 340 0.0 0.0 0.00 0.00 0.00 76 1011.2
20260503043859 3 340 0.0 0.0 0.00 0.00 0.00 76 1011.1
20260503043341 3 340 0.0 0.0 0.00 0.00 0.00 75 1011.0
20260503042905 3 340 0.0 0.0 0.00 0.00 0.00 75 1011.0
20260503042359 4 340 0.0 0.0 0.00 0.00 0.00 74 1011.0
20260503041841 4 340 0.0 0.0 0.00 0.00 0.00 74 1010.9
20260503041345 4 340 0.0 0.0 0.00 0.00 0.00 73 1011.0
20260503040829 4 340 0.0 0.0 0.00 0.00 0.00 73 1010.9
20260503040333 4 340 0.0 0.0 0.00 0.00 0.00 72 1010.9
20260503035857 4 340 0.0 0.0 0.00 0.00 0.00 72 1010.9
20260503035352 4 340 0.0 0.0 0.00 0.00 0.00 72 1011.0
20260503034855 5 340 0.0 0.0 0.00 0.00 0.00 71 1011.1
20260503034357 5 340 0.0 0.0 0.00 0.00 0.00 71 1011.0
20260503033840 5 340 0.0 0.0 0.00 0.00 0.00 70 1011.0
20260503033404 5 340 0.0 0.0 0.00 0.00 0.00 70 1011.0
20260503032907 5 340 0.0 0.0 0.00 0.00 0.00 70 1011.1
20260503032342 5 340 0.0 0.0 0.00 0.00 0.00 70 1011.2
20260503031850 5 340 0.0 0.0 0.00 0.00 0.00 69 1011.2
20260503031353 5 340 0.0 0.0 0.00 0.00 0.00 69 1011.2
20260503030836 5 340 0.0 0.0 0.00 0.00 0.00 69 1011.2
20260503030340 5 340 0.0 0.0 0.00 0.00 0.00 68 1011.2
20260503025904 6 340 0.0 0.0 0.00 0.00 0.00 68 1011.2
20260503025339 6 340 0.0 0.0 0.00 0.00 0.00 67 1011.2
20260503024842 6 340 0.0 0.0 0.00 0.00 0.00 66 1011.2
20260503024346 6 340 0.0 0.0 0.00 0.00 0.00 66 1011.2
20260503023829 6 340 0.0 0.0 0.00 0.00 0.00 65 1011.2
20260503023353 6 340 0.0 0.0 0.00 0.00 0.00 65 1011.1
20260503022856 6 340 0.0 0.0 0.00 0.00 0.00 65 1011.0
20260503022330 6 340 0.0 0.0 0.00 0.00 0.00 65 1011.0
20260503021854 7 340 0.0 0.0 0.00 0.00 0.00 64 1011.0
20260503021357 7 340 0.0 0.0 0.00 0.00 0.00 63 1011.1
20260503020859 7 340 0.0 0.0 0.00 0.00 0.00 62 1011.0
20260503020402 7 340 0.0 0.0 0.00 0.00 0.00 61 1010.9
20260503015905 7 340 0.0 0.0 0.00 0.00 0.00 61 1010.9
20260503015340 7 340 0.0 0.0 0.00 0.00 0.00 60 1010.8
20260503014904 8 340 0.0 0.0 0.00 0.00 0.00 59 1010.8
20260503014328 8 340 0.0 0.0 0.00 0.00 0.00 58 1010.7
20260503013831 8 340 0.0 0.0 0.00 0.00 0.00 57 1010.6
20260503013339 8 340 0.0 0.0 0.00 0.00 0.00 55 1010.6
20260503012844 8 340 0.0 0.0 0.00 0.00 0.00 54 1010.5
20260503012401 8 340 0.0 0.0 0.00 0.00 0.00 53 1010.5
20260503011905 9 340 0.0 1.6 0.00 0.00 0.00 53 1010.4
20260503011327 9 340 0.0 1.6 0.00 0.00 0.00 52 1010.3
20260503010851 9 340 0.0 0.0 0.00 0.00 0.00 52 1010.2
20260503010334 9 340 0.0 1.6 0.00 0.00 0.00 51 1010.2
20260503005857 10 340 0.0 1.6 0.00 0.00 0.00 51 1010.2
20260503005332 10 340 0.0 3.2 0.00 0.00 0.00 49 1010.2
20260503004836 10 340 1.6 3.2 0.00 0.00 0.00 49 1010.2
20260503004401 10 348 1.6 4.8 0.00 0.00 0.00 49 1010.2
20260503003843 10 355 1.6 4.8 0.00 0.00 0.00 48 1010.1
20260503003346 10 355 1.6 3.2 0.00 0.00 0.00 47 1010.0
20260503002829 10 344 1.6 8.0 0.00 0.00 0.00 46 1010.0
20260503002345 10 334 3.2 8.0 0.00 0.00 0.00 46 1010.0
20260503001850 10 22 3.2 9.7 0.00 0.00 0.00 46 1010.0
20260503001353 11 30 3.2 9.7 0.00 0.00 0.00 46 1009.9
20260503000835 11 19 4.8 9.7 0.00 0.00 0.00 44 1009.8
20260503000343 11 306 3.2 12.9 0.00 0.00 0.00 45 1009.8
20260502235907 11 30 6.4 12.9 0.00 0.00 0.00 44 1009.7
20260502235343 11 360 3.2 12.9 0.00 0.00 0.00 44 1009.8
20260502234907 11 19 4.8 16.1 0.00 0.00 0.00 44 1009.7
20260502234351 11 44 6.4 16.1 0.00 0.00 0.00 44 1009.8
20260502233853 11 340 9.7 20.9 0.00 0.00 0.00 43 1009.7
20260502233336 11 17 8.0 20.9 0.00 0.00 0.00 44 1009.7
20260502232841 11 317 9.7 17.7 0.00 0.00 0.00 42 1009.7
20260502232357 12 351 8.0 17.7 0.00 0.00 0.00 43 1009.7
20260502231859 12 9 4.8 9.7 0.00 0.00 0.00 43 1009.7
20260502231342 12 11 4.8 12.9 0.00 0.00 0.00 43 1009.6
20260502230827 12 9 6.4 17.7 0.00 0.00 0.00 43 1009.7
20260502230331 12 5 6.4 17.7 0.00 0.00 0.00 41 1009.7
20260502225834 12 333 6.4 16.1 0.00 0.00 0.00 41 1009.6
20260502225327 12 9 8.0 16.1 0.00 0.00 0.00 42 1009.6
20260502224851 12 5 6.4 12.9 0.00 0.00 0.00 41 1009.5
20260502224355 12 360 1.6 8.0 0.00 0.00 0.00 43 1009.5
20260502223837 12 323 3.2 8.0 0.00 0.00 0.00 42 1009.5
20260502223341 12 299 3.2 12.9 0.00 0.00 0.00 43 1009.6
20260502222830 12 286 4.8 12.9 0.00 0.00 0.00 40 1009.6
20260502222347 12 13 6.4 12.9 0.00 0.00 0.00 41 1009.6
20260502221832 12 31 4.8 16.1 0.00 0.00 0.00 41 1009.5
20260502221335 12 300 3.2 16.1 0.00 0.00 0.00 42 1009.6
20260502220859 12 271 6.4 16.1 0.00 0.00 0.00 41 1009.4
20260502215846 12 281 4.8 11.3 0.00 0.00 0.00 39 1009.5
20260502215403 12 5 3.2 16.1 0.00 0.00 0.00 41 1009.4
20260502214845 13 338 6.4 16.1 0.00 0.00 0.00 39 1009.4
20260502214330 13 333 6.4 14.5 0.00 0.00 0.00 39 1009.5
20260502213855 13 17 3.2 12.9 0.00 0.00 0.00 41 1009.3
20260502213338 13 19 4.8 14.5 0.00 0.00 0.00 42 1009.4
20260502212842 13 275 8.0 19.3 0.00 0.00 0.00 39 1009.4
20260502212358 13 15 4.8 20.9 0.00 0.00 0.00 43 1009.3
20260502211901 13 326 9.7 20.9 0.00 0.00 0.00 42 1009.4
20260502211329 13 290 3.2 14.5 0.00 0.00 0.00 42 1009.3
20260502210832 13 355 1.6 22.5 0.00 0.00 0.00 43 1009.2
20260502210336 13 334 9.7 22.5 0.00 0.00 0.00 41 1009.3
20260502205841 13 297 9.7 19.3 0.00 0.00 0.00 43 1009.2
20260502205357 13 5 4.8 17.7 0.00 0.00 0.00 43 1009.4
20260502204901 13 30 6.4 12.9 0.00 0.00 0.00 44 1009.3
20260502204344 13 5 4.8 24.1 0.00 0.00 0.00 44 1009.4
20260502203828 13 14 12.9 24.1 0.00 0.00 0.00 43 1009.4
20260502203352 13 355 8.0 20.9 0.00 0.00 0.00 43 1009.4
20260502202835 13 339 8.0 17.7 0.00 0.00 0.00 41 1009.4
20260502202332 13 9 6.4 12.9 0.00 0.00 0.00 39 1009.6
20260502201836 13 227 1.6 12.9 0.00 0.00 0.00 40 1009.6
20260502201340 13 327 3.2 16.1 0.00 0.00 0.00 41 1009.5
20260502200904 13 360 6.4 16.1 0.00 0.00 0.00 41 1009.6